Regional Weather Roundup
Issued by NWS

Home | Current Version | Previous Version | Graphics & Text | Print | Product List | Glossary On
Versions: 1 2 3 4 5 6 7 8 9 10 11 12 13 14 15 16 17 18 19 20 21 22 23 24 25 26 27 28
000
ASUS45 KSLC 070710
RWRUT

UTAH REGIONAL WEATHER ROUNDUP
NATIONAL WEATHER SERVICE SALT LAKE CITY UT
1200 AM MST WED DEC 07 2016

UTZ001>011-023>025-070800-

NORTHERN UTAH

CITY           SKY/WX    TMP DP  RH WIND       PRES   REMARKS
BRIGHAM CITY     N/A     23  12  62 NW7       30.00R WCI  14
HILL AFB       MOCLDY    20  11  67 N5        29.97R WCI  13
LOGAN          MOCLDY    20  17  88 NW6       29.98R WCI  12
OGDEN          MOCLDY    20  12  71 NW5       29.98R WCI  13
SALT LAKE CITY PTCLDY    26  19  74 NW12      29.98R WCI  16
TOOELE VALLEY  PTCLDY    25  18  74 E3        30.00R
WENDOVER       MOCLDY    25  10  54 W8        30.02R WCI  16
HEBER CITY     CLEAR     14   5  67 SE3       29.90R
WEST JORDAN    PTCLDY    25  19  76 CALM      29.97R

$$

UTZ011>015-024>027-070800-

CENTRAL/NORTHEAST UTAH

CITY           SKY/WX    TMP DP  RH WIND       PRES   REMARKS
PROVO AIRPORT  PTCLDY    25  15  66 N6        29.99R WCI  18
MOAB/CANYONLAN CLOUDY    33  10  38 W13       29.89R WCI  24
DELTA          PTCLDY    19   9  63 NW5       29.99R WCI  13
PRICE          PTCLDY    22   6  50 NW8       29.88R WCI  12
RICHFIELD      MOCLDY    27  18  69 CALM      29.98R
ROOSEVELT      CLEAR     23   5  46 NW8       29.92R WCI  14
VERNAL         CLOUDY    20  15  81 N5        29.89R WCI  13

$$

UTZ013>016-019>022-027-070800-

SOUTHERN UTAH

CITY           SKY/WX    TMP DP  RH WIND       PRES   REMARKS
BRYCE CANYON   NOT AVBL
CEDAR CITY     PTCLDY    22  10  60 CALM      29.94R
MILFORD        CLEAR     18   7  62 NW8       29.97R WCI   8
ST GEORGE      SUNNY     45  12  26 N5        29.94R
HANKSVILLE     CLOUDY    32  12  43 NW7       29.95R WCI  26
KANAB          CLEAR     36  18  48 CALM      29.93R
BLANDING       CLOUDY    31  11  44 NW16      29.90R WCI  20

$$

REGIONAL REPORTS     COLORADO/ARIZONA

CITY           SKY/WX    TMP DP  RH WIND       PRES   REMARKS
CRAIG, CO      LGT SNOW  17  12  80 W7        29.84R WCI   8
GRAND JUNCTION LGT SNOW  26  26 100 E3        29.90R FOG
RIFLE, CO      LGT SNOW  23  21  92 W8        29.87R FOG     WCI  14
MONTROSE, CO   CLOUDY    25  19  78 NW9       29.87R WCI  15
CORTEZ, CO     CLOUDY    30  12  47 N14G22    29.83R WCI  19
COLORADO CITY    N/A     23  19  86 CALM      29.92R
PAGE, AZ       CLEAR     43  16  33 W7        29.85R
GRAND CANYON   CLOUDY    32  31  96 SW14      29.92S WCI  22
KINGMAN, AZ    CLEAR     41  25  53 SE9       29.89R
FLAGSTAFF, AZ  CLEAR     30  27  88 W14       29.92S WCI  19

$$

REGIONAL REPORTS    NEVADA/IDAHO/WYOMING

CITY           SKY/WX    TMP DP  RH WIND       PRES   REMARKS
LAS VEGAS, NV  PTCLDY    53  18  25 W5        29.88R
ELY, NY        PTCLDY     7   3  84 S9        29.97R WCI  -7
ELKO, NV       CLOUDY    24  17  74 CALM      30.01R
POCATELLO, ID  LGT SNOW  16  14  92 CALM      30.03R
BURLEY, ID     CLOUDY    20  16  84 W9G16     30.05R WCI   9
FORT BRIDGER,    N/A     10   5  79 SW13      29.86R WCI  -5
EVANSTON, WY   CLOUDY     4  -1  80 SW9       29.83R WCI -10
ROCK SPRINGS,  LGT SNOW   8   6  92 W3        29.84R FOG
KEMMERER, WY   FLURRIES   0  -4  85 NW3       29.81

$$




USA.gov is the U.S. government's official web portal to all federal, state and local government web resources and services.